KOA181 YBCG-YBUD

Flight info

Callsign KOA181
Flight time 0h 41m
Altitude 26000
Route LAGOB DCT BN DCT AKOBA DCT SAGLI DCT SOSTU DCT BUD
Aircraft A319/M-SDE3FGHIRWY/LB1

Departure

Time 2026-05-08 06:46
Airport Gold Coast Airport (YBCG)

Arrival

Time 2026-05-08 07:28
Airport Bundaberg Airport (YBUD)
Time Latitude Longitude Altitude Speed Heading
2026-05-08 06:19 -28.16649 153.51166 26 ft 0 kts 60°
2026-05-08 06:32 -28.16651 153.51162 26 ft 3 kts 60°
2026-05-08 06:32 -28.16664 153.51135 30 ft 4 kts 60°
2026-05-08 06:33 -28.16677 153.51109 30 ft 4 kts 60°
2026-05-08 06:33 -28.16689 153.51086 31 ft 4 kts 67°
2026-05-08 06:33 -28.16691 153.51061 31 ft 4 kts 126°
2026-05-08 06:33 -28.16671 153.51041 31 ft 4 kts 149°
2026-05-08 06:34 -28.16661 153.51034 29 ft 0 kts 150°
2026-05-08 06:36 -28.16662 153.51035 29 ft 1 kts 150°
2026-05-08 06:36 -28.16665 153.51037 29 ft 0 kts 150°
2026-05-08 06:38 -28.16666 153.51037 26 ft 0 kts 150°
2026-05-08 06:38 -28.16677 153.51045 29 ft 4 kts 150°
2026-05-08 06:38 -28.16710 153.51066 29 ft 7 kts 150°
2026-05-08 06:39 -28.16763 153.51100 29 ft 10 kts 150°
2026-05-08 06:39 -28.16818 153.51131 28 ft 8 kts 165°
2026-05-08 06:39 -28.16879 153.51111 28 ft 11 kts 208°
2026-05-08 06:39 -28.16959 153.51121 27 ft 13 kts 154°
2026-05-08 06:40 -28.17050 153.51177 27 ft 16 kts 151°
2026-05-08 06:40 -28.17157 153.51244 27 ft 19 kts 151°
2026-05-08 06:40 -28.17269 153.51315 29 ft 17 kts 150°
2026-05-08 06:40 -28.17379 153.51386 28 ft 19 kts 150°
2026-05-08 06:41 -28.17416 153.51381 26 ft 5 kts 225°
2026-05-08 06:41 -28.17431 153.51349 27 ft 0 kts 244°
2026-05-08 06:43 -28.17431 153.51348 27 ft 0 kts 244°
2026-05-08 06:44 -28.17432 153.51345 27 ft 1 kts 244°
2026-05-08 06:44 -28.17440 153.51327 27 ft 4 kts 244°
2026-05-08 06:44 -28.17455 153.51294 28 ft 6 kts 243°
2026-05-08 06:45 -28.17470 153.51246 28 ft 8 kts 272°
2026-05-08 06:45 -28.17419 153.51196 27 ft 13 kts 332°
2026-05-08 06:45 -28.17191 153.51052 27 ft 74 kts 330°
2026-05-08 06:45 -28.16539 153.50639 27 ft 138 kts 331°
2026-05-08 06:46 -28.15587 153.50055 359 ft 160 kts 333°
2026-05-08 06:46 -28.14515 153.49393 602 ft 194 kts 332°
2026-05-08 06:46 -28.13206 153.48590 771 ft 235 kts 332°
2026-05-08 06:46 -28.11667 153.47658 926 ft 254 kts 332°
2026-05-08 06:47 -28.10121 153.46736 1071 ft 250 kts 332°
2026-05-08 06:47 -28.08578 153.45829 1223 ft 250 kts 332°
2026-05-08 06:47 -28.07030 153.44935 1374 ft 250 kts 332°
2026-05-08 06:47 -28.05976 153.44411 1466 ft 251 kts 341°
2026-05-08 06:48 -28.03744 153.43670 1686 ft 252 kts 343°
2026-05-08 06:48 -28.02053 153.43117 1830 ft 253 kts 343°
2026-05-08 06:48 -28.00356 153.42564 1980 ft 254 kts 342°
2026-05-08 06:48 -27.98649 153.42010 2174 ft 259 kts 342°
2026-05-08 06:49 -27.96900 153.41444 3207 ft 260 kts 342°
2026-05-08 06:49 -27.95149 153.40875 4248 ft 265 kts 341°
2026-05-08 06:49 -27.93937 153.40481 4838 ft 273 kts 341°
2026-05-08 06:49 -27.91463 153.39677 5948 ft 284 kts 341°
2026-05-08 06:50 -27.90169 153.39257 6594 ft 288 kts 341°
2026-05-08 06:50 -27.88231 153.38628 7495 ft 291 kts 341°
2026-05-08 06:50 -27.86273 153.37991 8448 ft 294 kts 340°
2026-05-08 06:50 -27.84299 153.37350 9402 ft 296 kts 340°
2026-05-08 06:51 -27.82305 153.36705 10251 ft 303 kts 340°
2026-05-08 06:51 -27.80202 153.36019 10553 ft 326 kts 340°
2026-05-08 06:51 -27.77958 153.35284 11011 ft 344 kts 340°
2026-05-08 06:51 -27.75637 153.34531 11764 ft 350 kts 340°
2026-05-08 06:52 -27.73283 153.33776 12571 ft 353 kts 340°
2026-05-08 06:52 -27.70907 153.33017 13402 ft 356 kts 340°
2026-05-08 06:52 -27.68511 153.32250 14183 ft 360 kts 340°
2026-05-08 06:52 -27.66092 153.31476 14889 ft 363 kts 340°
2026-05-08 06:53 -27.63659 153.30695 15611 ft 366 kts 340°
2026-05-08 06:53 -27.61195 153.29903 16324 ft 369 kts 340°
2026-05-08 06:53 -27.58720 153.29108 17027 ft 372 kts 340°
2026-05-08 06:53 -27.56217 153.28304 17726 ft 376 kts 340°
2026-05-08 06:54 -27.53726 153.27502 18409 ft 379 kts 340°
2026-05-08 06:54 -27.51145 153.26670 19031 ft 382 kts 339°
2026-05-08 06:54 -27.48618 153.25855 19677 ft 384 kts 339°
2026-05-08 06:54 -27.46047 153.25027 20339 ft 385 kts 339°
2026-05-08 06:55 -27.43467 153.24198 21004 ft 386 kts 338°
2026-05-08 06:55 -27.40880 153.23366 21665 ft 387 kts 338°
2026-05-08 06:55 -27.38283 153.22535 22306 ft 389 kts 338°
2026-05-08 06:55 -27.35641 153.21691 22898 ft 390 kts 338°
2026-05-08 06:56 -27.33055 153.20863 23472 ft 393 kts 337°
2026-05-08 06:56 -27.30391 153.20010 23981 ft 395 kts 337°
2026-05-08 06:56 -27.27745 153.19162 24471 ft 396 kts 337°
2026-05-08 06:56 -27.25125 153.18325 24944 ft 397 kts 337°
2026-05-08 06:57 -27.22463 153.17475 25423 ft 398 kts 336°
2026-05-08 06:57 -27.19792 153.16625 25885 ft 399 kts 336°
2026-05-08 06:57 -27.17118 153.15774 26068 ft 399 kts 336°
2026-05-08 06:57 -27.14474 153.14935 26107 ft 391 kts 336°
2026-05-08 06:58 -27.11865 153.14106 26109 ft 388 kts 336°
2026-05-08 06:58 -27.09270 153.13277 26108 ft 387 kts 336°
2026-05-08 06:58 -27.06680 153.12448 26102 ft 387 kts 336°
2026-05-08 06:58 -27.04088 153.11620 26110 ft 387 kts 336°
2026-05-08 06:59 -27.01494 153.10794 26110 ft 387 kts 336°
2026-05-08 06:59 -26.98866 153.09956 26111 ft 387 kts 336°
2026-05-08 06:59 -26.96308 153.09140 26115 ft 388 kts 336°
2026-05-08 06:59 -26.93713 153.08315 26112 ft 388 kts 336°
2026-05-08 07:00 -26.91118 153.07491 26110 ft 387 kts 336°
2026-05-08 07:00 -26.88526 153.06668 26109 ft 387 kts 336°
2026-05-08 07:00 -26.85900 153.05832 26111 ft 387 kts 336°
2026-05-08 07:00 -26.83316 153.05009 26114 ft 387 kts 336°
2026-05-08 07:01 -26.80762 153.04196 26109 ft 387 kts 336°
2026-05-08 07:01 -26.78172 153.03373 26089 ft 386 kts 336°
2026-05-08 07:01 -26.75589 153.02553 26099 ft 385 kts 336°
2026-05-08 07:01 -26.73019 153.01737 26107 ft 384 kts 336°
2026-05-08 07:02 -26.70441 153.00922 26106 ft 384 kts 336°
2026-05-08 07:02 -26.67878 153.00114 26109 ft 383 kts 336°
2026-05-08 07:02 -26.65310 152.99304 26109 ft 383 kts 336°
2026-05-08 07:02 -26.62748 152.98494 26107 ft 382 kts 336°
2026-05-08 07:03 -26.60194 152.97687 26105 ft 382 kts 336°
2026-05-08 07:03 -26.57636 152.96878 26104 ft 382 kts 336°
2026-05-08 07:03 -26.55079 152.96071 26103 ft 382 kts 336°
2026-05-08 07:03 -26.52524 152.95265 26103 ft 381 kts 336°
2026-05-08 07:04 -26.49970 152.94461 26083 ft 381 kts 336°
2026-05-08 07:04 -26.47420 152.93658 26099 ft 380 kts 336°
2026-05-08 07:04 -26.44877 152.92857 26111 ft 379 kts 336°
2026-05-08 07:04 -26.42340 152.92058 26117 ft 378 kts 335°
2026-05-08 07:05 -26.39811 152.91257 26121 ft 378 kts 335°
2026-05-08 07:05 -26.37286 152.90457 26122 ft 377 kts 335°
2026-05-08 07:05 -26.34763 152.89662 26122 ft 377 kts 335°
2026-05-08 07:05 -26.32241 152.88871 26121 ft 376 kts 335°
2026-05-08 07:06 -26.29714 152.88098 26122 ft 378 kts 337°
2026-05-08 07:06 -26.27147 152.87434 26118 ft 380 kts 339°
2026-05-08 07:06 -26.24552 152.86857 26115 ft 381 kts 340°
2026-05-08 07:06 -26.21950 152.86323 26114 ft 381 kts 341°
2026-05-08 07:07 -26.19341 152.85795 26092 ft 381 kts 340°
2026-05-08 07:07 -26.16740 152.85257 26101 ft 380 kts 340°
2026-05-08 07:07 -26.14147 152.84705 26103 ft 379 kts 340°
2026-05-08 07:07 -26.11564 152.84139 26109 ft 378 kts 339°
2026-05-08 07:08 -26.08987 152.83567 26101 ft 377 kts 339°
2026-05-08 07:08 -26.06413 152.82992 26110 ft 377 kts 339°
2026-05-08 07:08 -26.03841 152.82418 26111 ft 377 kts 339°
2026-05-08 07:08 -26.01271 152.81844 26114 ft 377 kts 339°
2026-05-08 07:09 -25.98702 152.81273 26105 ft 376 kts 339°
2026-05-08 07:09 -25.96132 152.80704 26107 ft 377 kts 340°
2026-05-08 07:09 -25.93562 152.80140 26113 ft 377 kts 340°
2026-05-08 07:09 -25.90989 152.79576 25980 ft 377 kts 340°
2026-05-08 07:10 -25.88422 152.79013 25737 ft 375 kts 340°
2026-05-08 07:10 -25.85862 152.78451 25498 ft 375 kts 340°
2026-05-08 07:10 -25.83306 152.77888 25271 ft 374 kts 340°
2026-05-08 07:10 -25.80754 152.77326 25039 ft 374 kts 340°
2026-05-08 07:11 -25.78205 152.76763 24809 ft 373 kts 340°
2026-05-08 07:11 -25.75659 152.76203 24578 ft 373 kts 340°
2026-05-08 07:11 -25.73122 152.75645 24353 ft 372 kts 340°
2026-05-08 07:11 -25.70582 152.75089 24128 ft 372 kts 340°
2026-05-08 07:12 -25.68045 152.74531 23903 ft 372 kts 341°
2026-05-08 07:12 -25.65511 152.73972 23680 ft 371 kts 341°
2026-05-08 07:12 -25.62979 152.73411 23400 ft 370 kts 341°
2026-05-08 07:12 -25.60460 152.72859 23134 ft 368 kts 341°
2026-05-08 07:13 -25.57950 152.72312 22869 ft 367 kts 341°
2026-05-08 07:13 -25.55462 152.71771 22563 ft 362 kts 341°
2026-05-08 07:13 -25.53021 152.71179 22125 ft 355 kts 336°
2026-05-08 07:13 -25.50759 152.70197 21695 ft 345 kts 327°
2026-05-08 07:14 -25.48692 152.68899 21277 ft 340 kts 324°
2026-05-08 07:14 -25.46658 152.67593 20856 ft 338 kts 324°
2026-05-08 07:14 -25.44631 152.66296 20434 ft 336 kts 324°
2026-05-08 07:14 -25.42614 152.65008 19998 ft 334 kts 324°
2026-05-08 07:15 -25.40601 152.63726 19563 ft 334 kts 325°
2026-05-08 07:15 -25.38490 152.62526 19146 ft 347 kts 328°
2026-05-08 07:15 -25.36288 152.61375 18729 ft 352 kts 330°
2026-05-08 07:15 -25.34056 152.60253 18313 ft 353 kts 330°
2026-05-08 07:16 -25.31814 152.59145 17833 ft 353 kts 331°
2026-05-08 07:16 -25.29571 152.58042 17367 ft 352 kts 331°
2026-05-08 07:16 -25.27338 152.56934 16902 ft 351 kts 331°
2026-05-08 07:16 -25.25114 152.55823 16465 ft 350 kts 331°
2026-05-08 07:17 -25.22900 152.54706 16024 ft 349 kts 332°
2026-05-08 07:17 -25.20693 152.53589 15589 ft 348 kts 332°
2026-05-08 07:17 -25.18492 152.52474 15157 ft 348 kts 332°
2026-05-08 07:17 -25.16297 152.51361 14735 ft 347 kts 332°
2026-05-08 07:18 -25.14106 152.50251 14323 ft 346 kts 333°
2026-05-08 07:18 -25.11924 152.49147 13903 ft 345 kts 333°
2026-05-08 07:18 -25.09742 152.48046 13444 ft 344 kts 333°
2026-05-08 07:18 -25.07565 152.46950 12983 ft 343 kts 334°
2026-05-08 07:19 -25.05395 152.45858 12525 ft 342 kts 334°
2026-05-08 07:19 -25.03235 152.44770 12078 ft 340 kts 334°
2026-05-08 07:19 -25.01086 152.43687 11637 ft 339 kts 334°
2026-05-08 07:19 -24.98947 152.42608 11202 ft 337 kts 334°
2026-05-08 07:20 -24.96819 152.41535 10769 ft 336 kts 334°
2026-05-08 07:20 -24.94701 152.40469 10348 ft 334 kts 335°
2026-05-08 07:20 -24.92593 152.39409 9927 ft 332 kts 335°
2026-05-08 07:20 -24.90494 152.38353 9486 ft 330 kts 335°
2026-05-08 07:21 -24.88444 152.37322 9366 ft 318 kts 335°
2026-05-08 07:21 -24.86479 152.36333 9175 ft 303 kts 334°
2026-05-08 07:21 -24.84583 152.35379 8680 ft 297 kts 334°
2026-05-08 07:21 -24.82712 152.34438 8123 ft 294 kts 334°
2026-05-08 07:22 -24.80858 152.33506 7563 ft 292 kts 334°
2026-05-08 07:22 -24.79019 152.32583 7004 ft 289 kts 334°
2026-05-08 07:22 -24.77192 152.31667 6407 ft 288 kts 333°
2026-05-08 07:22 -24.75355 152.30746 5731 ft 290 kts 333°
2026-05-08 07:23 -24.73589 152.29809 5487 ft 272 kts 326°
2026-05-08 07:23 -24.72366 152.28388 5357 ft 246 kts 294°
2026-05-08 07:23 -24.71992 152.26658 5241 ft 225 kts 266°
2026-05-08 07:23 -24.72378 152.25022 4780 ft 224 kts 239°
2026-05-08 07:24 -24.73437 152.23774 4302 ft 227 kts 216°
2026-05-08 07:24 -24.74755 152.22784 3817 ft 233 kts 204°
2026-05-08 07:24 -24.76311 152.22614 3400 ft 230 kts 165°
2026-05-08 07:24 -24.77716 152.23417 3089 ft 222 kts 148°
2026-05-08 07:25 -24.79006 152.24316 2771 ft 217 kts 148°
2026-05-08 07:25 -24.80256 152.25179 2466 ft 206 kts 148°
2026-05-08 07:25 -24.82546 152.26762 1911 ft 185 kts 148°
2026-05-08 07:26 -24.83618 152.27500 1631 ft 177 kts 149°
2026-05-08 07:26 -24.84621 152.28192 1396 ft 168 kts 149°
2026-05-08 07:26 -24.85595 152.28865 1157 ft 160 kts 149°
2026-05-08 07:26 -24.86499 152.29491 947 ft 146 kts 149°
2026-05-08 07:27 -24.87329 152.30064 745 ft 136 kts 149°
2026-05-08 07:27 -24.88123 152.30612 559 ft 134 kts 149°
2026-05-08 07:27 -24.88904 152.31157 359 ft 132 kts 148°
2026-05-08 07:27 -24.89671 152.31686 176 ft 131 kts 148°
2026-05-08 07:28 -24.90420 152.32205 112 ft 116 kts 148°
2026-05-08 07:28 -24.90862 152.32514 111 ft 31 kts 147°
2026-05-08 07:28 -24.90916 152.32554 110 ft 12 kts 142°
2026-05-08 07:28 -24.90949 152.32570 110 ft 1 kts 280°
2026-05-08 07:29 -24.90936 152.32560 109 ft 3 kts 321°
2026-05-08 07:29 -24.90914 152.32545 109 ft 4 kts 327°
2026-05-08 07:29 -24.90885 152.32524 111 ft 5 kts 327°
2026-05-08 07:29 -24.90851 152.32499 111 ft 6 kts 326°
2026-05-08 07:30 -24.90812 152.32470 112 ft 7 kts 326°
2026-05-08 07:30 -24.90766 152.32439 112 ft 9 kts 329°
2026-05-08 07:30 -24.90708 152.32401 112 ft 11 kts 328°
2026-05-08 07:30 -24.90639 152.32353 111 ft 13 kts 327°
2026-05-08 07:31 -24.90588 152.32316 112 ft 13 kts 327°
2026-05-08 07:31 -24.90506 152.32260 113 ft 15 kts 327°
2026-05-08 07:31 -24.90412 152.32194 111 ft 17 kts 329°
2026-05-08 07:31 -24.90305 152.32121 109 ft 19 kts 328°
2026-05-08 07:32 -24.90186 152.32044 108 ft 21 kts 329°
2026-05-08 07:32 -24.90068 152.31972 108 ft 11 kts 11°
2026-05-08 07:32 -24.90024 152.32037 109 ft 10 kts 59°
2026-05-08 07:32 -24.89974 152.32065 109 ft 9 kts 342°
2026-05-08 07:33 -24.89920 152.32046 109 ft 4 kts 50°
2026-05-08 07:33 -24.89927 152.32087 109 ft 6 kts 101°
2026-05-08 07:33 -24.89928 152.32095 109 ft 0 kts 101°